DateTimeUTC,F1_A11,F1_S11,BsB_S11,BsG_S11,BsR_S11,BbsB_S11,BbsG_S11,BbsR_S11,BaB_A11,BaG_A11,BaR_A11,Tu_S11,T_S11,Uu_S11,U_S11,P_S11,T1_A11
2021-10-16T09:00:00Z,00000200,21000000,,,,,,,0000.11,0000.09,0000.41,16.5,23.8,,00.0,0667.0,30.9
2021-10-16T09:01:00Z,00000200,21000000,,,,,,,-000.68,-000.11,-000.34,16.5,23.8,,00.0,0667.0,30.9
2021-10-16T09:02:00Z,00000200,21000000,,,,,,,0000.21,-000.20,-000.17,16.5,23.8,,00.0,0667.0,30.9
2021-10-16T09:03:00Z,00000200,61000000,,,,,,,0000.40,0000.07,0000.42,16.5,23.8,,00.0,0667.0,30.9
2021-10-16T09:04:00Z,00000200,41000000,0002.77,0001.79,0001.16,0000.82,0000.32,0000.38,-000.09,0000.53,0000.06,16.8,23.6,,00.0,0667.9,30.9
2021-10-16T09:05:00Z,00000200,01000000,0002.68,0002.31,0000.94,0000.43,0000.05,0000.01,0000.39,0000.31,0000.29,16.9,23.6,,00.0,0667.9,30.9
2021-10-16T09:06:00Z,00000200,01000000,0002.11,0001.59,0001.07,-000.05,0000.37,0000.12,0000.62,0000.16,0000.49,16.9,23.6,,00.0,0667.9,30.9
2021-10-16T09:07:00Z,00000200,01000000,0001.73,0001.76,0001.18,0000.62,0000.33,0000.04,0000.15,0000.53,0000.17,16.9,23.6,,00.0,0667.9,30.9
2021-10-16T09:08:00Z,00000200,01000000,0001.93,0001.68,0001.01,0000.51,0000.34,0000.17,0000.49,0000.25,-000.06,17.0,23.6,,00.0,0667.9,30.9
2021-10-16T09:09:00Z,00000200,01000000,0002.32,0001.74,0000.74,0000.59,0000.08,-000.07,0000.27,0000.27,0000.14,17.0,23.6,,00.0,0667.9,30.9
2021-10-16T09:10:00Z,00000200,01000000,0002.38,0001.87,0000.83,0000.16,0000.12,0000.20,-000.01,-000.09,0000.02,17.0,23.6,,00.0,0667.9,30.9
2021-10-16T09:11:00Z,00000200,01000000,0001.78,0001.59,0000.77,0000.47,0000.24,0000.26,0000.15,0000.01,0000.07,16.9,23.6,,00.0,0667.9,30.9
2021-10-16T09:12:00Z,00000200,01000000,0002.03,0001.65,0001.18,0000.32,0000.26,0000.05,-000.03,0000.02,-000.05,16.8,23.6,,00.0,0667.9,30.9
2021-10-16T09:13:00Z,00000200,01010000,0002.36,0001.61,0000.86,0000.22,0000.37,0000.12,0000.61,0000.63,0000.41,16.8,23.5,,00.0,0667.9,30.8
2021-10-16T09:14:00Z,00000200,01000000,0003.48,0003.29,0001.90,0000.43,0000.30,0000.22,0000.78,0000.47,0000.31,16.7,23.5,,00.0,0667.9,30.8
2021-10-16T09:15:00Z,00000200,01000000,0005.21,0003.51,0002.17,0000.58,0000.38,0000.41,0000.97,0001.04,0001.04,16.7,23.5,,00.0,0667.9,30.8
2021-10-16T09:16:00Z,00000200,01000000,0004.41,0003.32,0002.09,0000.71,0000.48,0000.31,0000.79,0000.85,0000.68,16.7,23.5,,00.0,0667.9,30.8
2021-10-16T09:17:00Z,00000200,01000000,0005.02,0004.09,0002.28,0000.44,0000.56,0000.39,0001.12,0000.65,0000.27,16.8,23.5,,00.0,0667.9,30.9
2021-10-16T09:18:00Z,00000200,01000000,0004.02,0003.69,0002.14,0000.67,0000.58,0000.39,0000.34,0000.60,0000.76,16.8,23.5,,00.0,0667.9,30.9
2021-10-16T09:19:00Z,00000200,01000000,0004.87,0003.33,0001.75,0000.87,0000.71,0000.20,0000.87,0000.49,0000.50,16.8,23.5,,00.0,0667.9,30.9
2021-10-16T09:20:00Z,00000200,01000000,0003.62,0002.93,0001.86,0000.64,0000.34,0000.27,0000.40,0000.66,0000.47,16.9,23.5,,00.0,0668.0,30.9
2021-10-16T09:21:00Z,00000200,01000000,0004.38,0003.31,0001.55,0000.56,0000.13,0000.21,0000.62,0000.46,0000.21,16.9,23.5,,00.0,0668.0,30.9
2021-10-16T09:22:00Z,00000200,01000000,0004.15,0002.85,0001.90,0001.01,0000.41,0000.26,0000.76,0000.58,0000.40,16.9,23.5,,00.0,0668.0,30.9
2021-10-16T09:23:00Z,00000200,01000000,0003.44,0002.60,0001.89,0000.47,0000.42,0000.42,0000.52,0000.65,0000.45,17.0,23.5,,00.0,0668.0,30.9
2021-10-16T09:24:00Z,00000200,01000000,0004.31,0002.86,0001.59,-000.30,0000.62,0000.30,0000.34,0000.38,0000.57,17.0,23.6,,00.0,0668.0,30.9
2021-10-16T09:25:00Z,00000200,01000000,0004.21,0002.87,0001.74,0000.99,0000.41,0000.31,0000.52,0000.38,-000.08,17.0,23.6,,00.0,0668.0,30.9
2021-10-16T09:26:00Z,00000200,01000000,0004.21,0003.02,0001.47,0000.93,0000.53,0000.34,0000.45,0000.23,0000.19,17.0,23.6,,00.0,0667.9,30.9
2021-10-16T09:27:00Z,00000200,01000000,0003.39,0003.03,0001.50,0000.38,0000.58,0000.48,0000.50,0000.23,0000.10,16.9,23.6,,00.0,0667.9,30.9
2021-10-16T09:28:00Z,00000200,01000000,0003.24,0002.24,0001.27,-000.14,-000.02,-000.02,0000.76,0000.90,0000.81,16.8,23.5,,00.0,0667.9,30.9
2021-10-16T09:29:00Z,00000200,01000000,0003.98,0002.36,0001.36,0000.75,0000.45,0000.39,0000.64,0000.86,0000.53,16.8,23.5,,00.0,0667.9,30.9
2021-10-16T09:30:00Z,00000200,01000000,0004.15,0002.63,0001.27,0000.64,0000.16,0000.07,0000.57,0000.57,0000.39,16.8,23.5,,00.0,0667.9,30.9
2021-10-16T09:31:00Z,00000200,01000000,0004.45,0002.77,0001.80,0000.47,0000.45,0000.43,0000.84,0000.19,0000.37,16.8,23.5,,00.0,0667.9,30.9
2021-10-16T09:32:00Z,00000200,01000000,0003.53,0003.07,0001.65,0000.80,0000.15,0000.00,0000.33,0000.42,0000.38,16.8,23.5,,00.0,0667.9,30.9
2021-10-16T09:33:00Z,00000200,01000000,0002.57,0002.71,0001.59,-000.00,0000.42,0000.40,0001.03,0001.35,0001.20,16.8,23.5,,00.0,0667.9,30.9
2021-10-16T09:34:00Z,00000200,01000000,0003.85,0002.84,0001.45,0000.76,0000.07,0000.08,0000.70,0000.56,0000.16,16.9,23.5,,00.0,0667.9,30.9
2021-10-16T09:35:00Z,00000200,01000000,0002.84,0002.45,0001.67,0000.38,0000.21,0000.39,0000.70,0000.40,0000.47,16.9,23.5,,00.0,0667.9,30.9
2021-10-16T09:36:00Z,00000200,01000000,0003.75,0002.42,0001.61,-000.23,0000.10,0000.30,0000.87,0001.01,0000.41,16.9,23.5,,00.0,0667.9,30.9
2021-10-16T09:37:00Z,00000200,01000000,0002.66,0002.54,0001.45,0000.17,0000.50,0000.59,0000.26,0000.19,0000.30,17.0,23.5,,00.0,0667.9,30.9
2021-10-16T09:38:00Z,00000200,01000000,0004.06,0003.26,0001.71,0001.02,0000.38,0000.37,0000.89,0000.60,0000.42,17.0,23.6,,00.0,0667.9,30.9
2021-10-16T09:39:00Z,00000200,01000000,0004.22,0002.90,0001.11,0000.43,0000.72,0000.32,0000.58,0000.52,0000.50,17.0,23.6,,00.0,0667.9,30.9
2021-10-16T09:40:00Z,00000200,01000000,0002.55,0002.48,0001.51,0000.03,0000.38,0000.35,0000.53,0000.94,0000.20,17.0,23.6,,00.0,0667.9,30.9
2021-10-16T09:41:00Z,00000200,01000000,0003.87,0002.88,0001.97,0000.07,0000.62,-000.08,0000.30,-000.11,0000.25,16.9,23.6,,00.0,0667.9,30.9
2021-10-16T09:42:00Z,00000200,01000000,0004.02,0002.65,0001.68,0000.30,-000.04,0000.43,0000.53,0000.18,0000.17,16.9,23.5,,00.0,0667.8,30.9
2021-10-16T09:43:00Z,00000200,01000000,0003.07,0002.40,0001.28,0000.57,0000.12,0000.05,0000.35,0000.93,0000.34,16.8,23.5,,00.0,0667.8,30.9
2021-10-16T09:44:00Z,00000200,01000000,0003.16,0002.51,0001.55,0000.93,0000.32,0000.13,0001.02,0000.52,0000.46,16.7,23.4,,00.0,0667.8,30.8
2021-10-16T09:45:00Z,00000200,01000000,0003.19,0002.62,0001.27,0000.92,0000.36,-000.06,0000.51,0000.56,0000.68,16.7,23.4,,00.0,0667.8,30.8
2021-10-16T09:46:00Z,00000200,01000000,0003.69,0002.43,0001.50,0000.87,0000.56,0000.14,0000.45,0000.64,0000.25,16.7,23.4,,00.0,0667.8,30.8
2021-10-16T09:47:00Z,00000200,01000000,0003.60,0002.69,0001.67,0000.57,0000.54,0000.34,0000.68,0000.49,0000.84,16.8,23.4,,00.0,0667.8,30.8
2021-10-16T09:48:00Z,00000200,01000000,0003.45,0002.70,0001.36,0000.52,0000.39,0000.23,0000.66,0000.79,0000.23,16.8,23.4,,00.0,0667.8,30.8
2021-10-16T09:49:00Z,00000200,01000000,0004.41,0002.61,0001.51,0000.24,0000.37,0000.20,0000.66,0000.56,0000.47,16.8,23.4,,00.0,0667.8,30.9
2021-10-16T09:50:00Z,00000200,01000000,0004.93,0003.25,0001.62,0000.25,0000.77,0000.25,0000.81,0000.59,0000.28,16.8,23.4,,00.0,0667.8,30.9
2021-10-16T09:51:00Z,00000200,01000000,0004.78,0003.34,0001.62,0001.11,0000.27,0000.43,0000.67,0000.36,0000.63,16.9,23.5,,00.0,0667.8,30.9
2021-10-16T09:52:00Z,00000200,01000000,0004.29,0003.65,0002.02,0001.00,0000.22,0000.41,0000.82,0000.87,0000.65,16.9,23.5,,00.0,0667.8,30.9
2021-10-16T09:53:00Z,00000200,01000000,0004.86,0003.43,0002.11,0000.45,0000.74,0000.29,0000.84,0000.59,0000.37,17.0,23.5,,00.0,0667.8,30.9
2021-10-16T09:54:00Z,00000200,01000000,0004.25,0003.57,0002.00,-000.17,0000.54,0000.38,0000.72,0000.38,0000.33,17.0,23.5,,00.0,0667.8,30.9
2021-10-16T09:55:00Z,00000200,01000000,0004.50,0003.35,0001.82,0000.77,0000.19,0000.21,0000.71,0000.91,0000.67,17.0,23.5,,00.0,0667.8,30.9
2021-10-16T09:56:00Z,00000200,01000000,0003.89,0003.06,0002.06,0001.19,0000.24,0000.36,0000.73,0000.78,0000.45,17.0,23.5,,00.0,0667.8,30.9
2021-10-16T09:57:00Z,00000200,41000000,,,,,,,0000.64,0000.48,0000.42,17.1,23.6,,00.0,0667.8,30.9
2021-10-16T09:58:00Z,00000200,61000000,,,,,,,-000.52,-000.46,-000.22,16.7,23.7,,00.0,0666.8,30.9
2021-10-16T09:59:00Z,00000200,21000000,,,,,,,-000.03,0000.33,0000.02,16.7,23.8,,00.0,0666.8,30.9
